Probability
90 94 90 87 94 90 84 87 84 90 84 77 77 61 55 55 39 35 65 84 100 100 97 90 97 97 94 97 100 100 97 97 97 100 100 100 100 97 97 94 94 90 94
87 84 81 77 71 74 81 81 74 81 74 71 71 68 68 65 65 68 65 77 90 94 94 97 94 97 90 94 100 100 100 100 100 100 97 100 100 100 100 97 97 94 94
84 71 74 71 65 68 77 71 55 58 68 65 58 61 77 74 71 71 71 74 81 90 94 90 94 97 94 90 97 100 100 100 100 100 100 100 100 100 100 100 100 97 94
65 71 58 65 77 77 65 61 61 52 52 52 55 58 65 74 61 65 61 68 71 68 81 90 94 90 90 94 87 90 94 97 100 100 100 100 100 100 100 97 97 94 84
65 61 65 68 65 65 55 52 45 52 52 52 45 48 52 52 61 45 48 55 68 77 77 81 87 90 94 90 94 90 90 94 94 97 97 100 100 100 97 94 97 94 77
52 58 61 65 65 65 65 58 52 61 55 45 26 23 52 52 52 48 55 48 71 68 68 71 84 74 81 84 87 87 84 87 87 87 97 94 97 100 94 87 84 84 74
26 48 39 48 55 42 52 42 42 35 45 45 35 26 39 42 42 58 58 58 45 55 61 71 74 74 77 68 74 84 81 84 87 87 94 97 94 87 84 71 61 61 61
23 19 26 35 23 35 32 42 48 39 26 32 39 32 23 26 42 10 42 48 45 52 45 45 77 84 74 61 42 58 81 77 87 87 94 90 87 87 77 68 58 45 45
16 16 16 13 23 19 16 26 29 26 26 23 32 26 16 6 13 16 23 26 55 55 32 42 39 55 65 68 74 19 68 74 87 87 90 84 74 58 55 61 55 42 26
16 13 13 13 10 10 10 3 10 10 23 29 23 26 10 3 10 0 13 16 29 35 32 13 19 32 42 71 71 19 23 32 52 84 97 84 81 61 48 55 61 52 35
10 10 13 13 10 6 6 3 3 6 16 16 16 16 16 23 10 6 0 3 10 13 13 19 26 32 35 39 61 32 10 13 19 55 74 74 77 71 68 61 77 74 55
10 6 10 10 10 6 6 3 6 10 10 13 13 10 10 10 13 13 6 10 6 10 10 13 23 29 32 45 26 13 6 0 0 6 35 48 61 61 71 77 84 81 74
0 6 0 10 6 6 6 6 6 3 6 10 13 10 10 6 6 10 6 3 3 3 3 10 16 29 23 29 45 3 3 0 0 0 0 16 29 39 48 65 77 81 81
0 0 0 3 3 3 3 6 6 6 3 3 3 6 16 6 3 6 3 3 0 6 3 3 3 13 23 39 26 3 10 0 0 0 0 0 3 13 16 23 29 52 65
0 0 0 0 0 3 3 3 3 6 6 3 3 3 3 3 3 3 6 3 0 0 0 3 0 3 6 29 16 19 32 0 0 0 0 0 0 3 3 3 3 3 6
0 0 0 0 0 0 0 0 3 3 3 3 6 6 3 3 3 3 3 3 0 3 0 0 0 0 0 0 0 10 23 0 0 0 0 0 0 0 0 0 0 3 3
0 0 0 0 0 0 0 0 0 0 0 0 0 0 0 0 3 3 3 0 0 0 0 0 3 3 3 3 3 10 19 19 10 0 0 0 0 0 0 0 0 0 3
0 0 0 0 0 0 0 0 0 0 0 0 0 0 0 0 0 0 0 0 0 6 3 6 3 0 0 6 10 10 3 3 16 0 0 0 0 0 0 0 0 0 0
0 0 0 0 0 0 0 0 0 0 0 0 0 0 0 0 0 0 0 0 3 0 0 3 3 3 3 3 3 0 0 19 0 0 0 0 0 0 0 0 0 0 0
0 0 0 0 0 0 0 0 0 0 0 0 0 0 0 0 0 0 0 0 0 0 0 3 3 0 0 3 0 0 0 6 3 0 0 0 0 0 0 0 0 0 0
0 0 0 0 0 0 0 0 0 0 0 0 0 0 0 0 0 0 0 0 0 0 3 3 0 0 0 0 3 0 0 0 3 3 0 0 0 0 0 0 0 0 0
0 0 0 0 0 0 0 0 0 0 0 0 0 0 0 0 0 0 0 0 0 0 0 3 3 0 0 0 3 0 0 0 0 0 0 0 0 0 0 0 0 0 0
0 0 0 0 0 0 0 0 0 0 0 0 0 0 0 0 0 0 0 0 0 0 0 3 0 0 0 0 0 0 0 0 0 0 0 0 3 3 0 0 0 0 0
0 0 0 0 0 0 0 0 0 0 0 0 0 0 0 0 0 0 0 0 0 0 0 0 0 0 0 0 0 0 0 0 0 0 0 0 0 3 0 0 0 0 0
0 0 0 0 0 0 0 0 0 0 0 0 0 0 0 0 0 0 0 0 0 0 0 0 0 0 0 0 0 0 0 0 0 0 0 0 0 0 0 0 0 0 0
0 0 0 0 0 0 0 0 0 0 0 0 0 0 0 0 0 0 0 0 0 0 0 0 0 0 0 0 0 0 0 0 0 0 0 0 0 0 0 0 0 0 0
Height
5867 5867 5867 5866 5867 5867 5867 5868 5867 5867 5867 5867 5868 5869 5869 5871 5872 5873 5875 5877 5878 5881 5883 5886 5887 5890 5892 5894 5896 5899 5901 5903 5905 5907 5909 5912 5913 5915 5917 5919 5921 5922 5924
5860 5860 5860 5859 5860 5860 5860 5861 5861 5861 5861 5861 5862 5863 5863 5864 5866 5868 5869 5871 5873 5875 5878 5881 5883 5885 5887 5890 5892 5895 5897 5900 5902 5904 5907 5909 5911 5913 5915 5917 5919 5921 5923
5853 5853 5854 5853 5854 5853 5853 5854 5854 5854 5854 5855 5856 5856 5857 5858 5860 5862 5863 5865 5867 5869 5872 5875 5877 5880 5882 5885 5887 5890 5893 5895 5898 5901 5903 5906 5908 5911 5913 5915 5917 5919 5921
5848 5848 5848 5847 5847 5847 5847 5848 5848 5848 5848 5849 5850 5851 5851 5852 5854 5856 5857 5859 5861 5863 5866 5869 5871 5874 5877 5879 5882 5885 5888 5891 5894 5897 5899 5902 5905 5908 5910 5913 5915 5917 5919
5842 5841 5841 5841 5841 5841 5841 5841 5840 5841 5842 5842 5843 5845 5845 5847 5848 5849 5851 5853 5854 5857 5860 5862 5865 5868 5870 5873 5876 5879 5882 5885 5888 5892 5895 5898 5901 5904 5907 5910 5912 5914 5916
5836 5835 5835 5834 5834 5833 5833 5833 5833 5834 5834 5835 5836 5837 5839 5840 5841 5843 5844 5846 5848 5850 5853 5855 5858 5861 5864 5867 5870 5873 5876 5879 5883 5886 5890 5893 5896 5900 5903 5906 5909 5911 5913
5829 5828 5827 5827 5826 5825 5825 5825 5825 5826 5826 5827 5828 5829 5831 5832 5834 5836 5837 5839 5842 5843 5845 5848 5851 5854 5857 5860 5863 5866 5870 5873 5876 5880 5884 5888 5891 5895 5898 5901 5905 5907 5910
5822 5821 5820 5819 5818 5817 5817 5816 5817 5817 5817 5818 5820 5820 5822 5825 5826 5828 5830 5832 5834 5836 5838 5840 5843 5846 5850 5852 5856 5860 5863 5866 5870 5874 5878 5882 5886 5889 5893 5897 5900 5903 5906
5814 5813 5812 5811 5809 5808 5808 5807 5807 5808 5808 5809 5811 5812 5814 5816 5818 5820 5822 5824 5826 5828 5830 5833 5836 5839 5842 5845 5849 5852 5856 5860 5864 5867 5871 5875 5880 5884 5888 5891 5895 5898 5901
5806 5805 5803 5802 5800 5799 5798 5798 5798 5799 5799 5800 5801 5802 5805 5807 5809 5811 5813 5815 5817 5819 5822 5825 5828 5831 5834 5837 5841 5844 5848 5853 5857 5861 5865 5869 5873 5878 5882 5886 5889 5893 5896
5798 5796 5794 5793 5792 5790 5789 5789 5789 5789 5790 5790 5792 5793 5794 5797 5799 5801 5803 5806 5808 5811 5813 5816 5819 5822 5826 5829 5832 5836 5840 5845 5849 5854 5858 5862 5866 5871 5875 5880 5883 5887 5891
5789 5787 5785 5783 5782 5781 5780 5779 5779 5779 5780 5781 5782 5783 5784 5786 5788 5791 5793 5796 5798 5801 5804 5807 5810 5814 5817 5821 5824 5828 5832 5837 5842 5846 5851 5855 5860 5865 5869 5873 5877 5881 5885
5780 5778 5776 5774 5772 5771 5770 5769 5769 5769 5770 5770 5771 5772 5774 5776 5778 5780 5783 5785 5788 5791 5794 5797 5801 5804 5808 5812 5816 5820 5824 5829 5834 5839 5844 5848 5853 5858 5863 5867 5871 5875 5879
5771 5768 5766 5764 5762 5760 5760 5759 5758 5758 5759 5759 5759 5761 5762 5764 5766 5769 5772 5775 5778 5781 5784 5787 5791 5795 5799 5803 5807 5811 5815 5821 5826 5831 5836 5841 5846 5851 5856 5860 5865 5869 5873
5763 5759 5756 5753 5751 5750 5748 5748 5747 5747 5747 5747 5748 5749 5750 5752 5754 5757 5760 5763 5767 5770 5774 5777 5780 5784 5789 5793 5797 5802 5807 5812 5817 5823 5828 5834 5839 5844 5849 5854 5858 5863 5867
5753 5749 5746 5743 5740 5739 5737 5736 5736 5736 5736 5736 5736 5737 5738 5739 5741 5744 5748 5751 5754 5758 5762 5766 5769 5774 5778 5783 5788 5793 5798 5803 5809 5814 5820 5825 5831 5836 5842 5847 5852 5856 5860
5744 5739 5736 5732 5729 5727 5726 5724 5723 5723 5723 5723 5723 5724 5725 5727 5729 5731 5735 5738 5742 5746 5750 5754 5758 5763 5768 5773 5778 5783 5789 5794 5800 5806 5812 5817 5823 5829 5834 5840 5845 5850 5854
5734 5729 5725 5722 5719 5716 5714 5712 5711 5710 5709 5710 5710 5711 5712 5713 5716 5718 5722 5726 5729 5733 5738 5742 5747 5752 5756 5762 5767 5773 5779 5784 5790 5796 5803 5809 5815 5821 5827 5832 5838 5843 5848
5724 5720 5715 5711 5708 5705 5702 5700 5698 5697 5696 5696 5696 5696 5698 5700 5702 5705 5708 5712 5716 5720 5725 5730 5735 5740 5745 5751 5757 5763 5768 5775 5781 5787 5793 5800 5806 5813 5819 5825 5831 5836 5841
5716 5710 5705 5701 5697 5693 5690 5688 5685 5684 5682 5681 5682 5682 5683 5685 5687 5690 5694 5698 5702 5707 5712 5717 5722 5728 5733 5739 5746 5752 5758 5765 5771 5778 5784 5791 5798 5804 5811 5817 5823 5829 5835
5707 5702 5696 5691 5686 5682 5679 5675 5673 5671 5669 5668 5667 5667 5668 5670 5672 5675 5679 5683 5688 5693 5699 5704 5710 5716 5722 5728 5735 5741 5748 5754 5761 5767 5774 5781 5788 5795 5802 5809 5815 5822 5828
5699 5693 5687 5682 5676 5671 5667 5664 5661 5658 5657 5655 5654 5653 5654 5655 5657 5660 5663 5668 5674 5679 5685 5691 5697 5704 5710 5717 5724 5730 5737 5744 5751 5758 5765 5772 5779 5786 5793 5801 5807 5814 5820
5692 5685 5679 5673 5667 5662 5657 5653 5649 5647 5645 5642 5640 5639 5639 5641 5642 5645 5648 5653 5659 5665 5672 5678 5685 5692 5699 5706 5713 5720 5726 5733 5741 5748 5755 5762 5769 5777 5785 5792 5799 5805 5812
5684 5677 5671 5664 5658 5652 5647 5643 5639 5636 5633 5630 5628 5627 5626 5627 5628 5631 5634 5639 5645 5651 5658 5665 5673 5680 5686 5693 5701 5708 5715 5722 5730 5737 5744 5752 5759 5767 5775 5783 5790 5797 5804
5677 5670 5663 5657 5650 5644 5639 5634 5629 5625 5622 5619 5617 5615 5614 5614 5615 5618 5622 5626 5632 5637 5644 5651 5659 5667 5674 5682 5689 5697 5704 5711 5719 5727 5734 5742 5750 5757 5765 5773 5781 5788 5795
5670 5663 5656 5649 5643 5637 5631 5625 5620 5616 5612 5609 5606 5603 5602 5602 5603 5605 5609 5614 5619 5625 5631 5639 5647 5654 5662 5670 5678 5686 5694 5701 5709 5717 5724 5732 5740 5748 5756 5764 5772 5779 5786
Wind_Speed
31 32 30 28 29 29 28 27 26 25 25 25 23 24 24 23 23 23 22 23 24 25 26 27 26 26 25 25 24 23 22 21 20 18 17 17 16 15 14 13 13 12 11
31 33 31 31 30 30 29 29 27 27 26 25 25 25 24 24 23 24 24 25 26 26 26 28 28 28 27 27 27 26 25 24 23 21 20 19 18 17 16 15 14 13 12
27 27 28 30 29 29 30 30 29 28 27 27 27 26 26 25 25 24 25 25 26 28 28 29 30 30 30 29 29 29 28 28 26 25 23 22 20 19 18 17 16 15 14
26 26 25 27 29 28 28 29 30 29 28 27 27 27 27 26 26 26 26 27 27 28 29 30 31 31 32 31 31 31 31 30 29 28 26 24 23 22 20 19 18 17 16
25 25 25 26 27 29 29 29 29 29 29 28 27 27 27 27 27 26 27 28 29 29 29 31 31 32 33 33 33 32 32 31 32 31 29 27 25 24 22 22 20 19 18
25 26 27 28 29 30 30 31 31 31 31 30 30 29 29 28 28 27 27 28 28 28 30 32 33 33 34 35 34 34 34 34 33 33 32 30 28 26 25 24 22 21 20
27 27 29 30 30 31 32 32 33 34 33 32 31 31 31 30 30 29 29 29 29 30 30 32 34 35 34 36 36 35 35 36 35 34 35 33 31 29 28 26 25 23 22
28 28 28 30 31 32 33 34 34 34 34 34 33 33 32 31 31 32 32 31 32 32 32 32 34 35 35 36 37 37 36 36 36 35 35 35 34 32 30 29 27 26 24
29 29 30 31 32 33 33 34 34 35 35 35 34 34 34 34 34 33 34 34 34 34 34 34 34 35 35 36 37 38 38 38 38 36 36 36 35 33 32 31 29 28 27
29 30 30 31 31 32 32 33 34 34 35 35 35 35 36 36 36 35 36 37 36 36 36 36 36 35 36 36 37 37 38 38 38 37 36 37 37 35 33 32 31 30 29
30 31 31 31 31 32 33 33 34 34 35 35 36 36 37 37 37 37 36 37 38 38 38 37 37 37 37 37 37 38 38 39 39 38 38 38 38 37 35 34 32 31 30
31 32 32 32 32 32 33 33 34 35 36 36 37 37 38 38 39 39 39 38 39 39 39 39 38 38 38 39 38 38 39 40 40 39 39 38 38 37 36 34 33 31 31
33 33 33 33 33 33 33 33 34 35 36 37 38 39 39 40 40 40 40 40 40 40 41 41 40 40 40 40 39 39 40 40 40 39 40 39 39 37 36 35 34 32 31
33 34 34 34 34 34 34 34 35 35 36 37 38 39 40 40 41 42 41 41 41 42 42 42 42 42 41 41 40 40 40 40 40 40 40 40 39 38 37 36 34 33 32
33 34 34 35 35 35 35 35 36 36 36 37 39 40 41 42 43 43 43 43 43 42 43 43 43 43 43 42 41 42 41 41 41 41 40 41 40 39 38 37 35 34 32
33 33 34 34 35 35 36 36 37 37 38 38 39 40 41 42 43 44 45 45 45 44 44 44 45 45 45 43 43 42 43 43 43 43 42 41 41 40 39 38 36 35 33
33 33 33 33 34 35 36 36 37 38 39 39 40 41 42 43 44 44 45 45 45 46 45 46 45 45 45 45 44 44 45 44 44 44 44 43 42 41 40 39 37 35 34
32 32 32 33 34 34 35 36 37 38 39 40 41 41 42 43 45 45 45 45 46 46 46 46 47 46 46 47 46 46 46 45 44 44 44 44 43 43 41 40 38 36 35
32 32 32 32 33 33 34 35 37 38 39 40 41 42 43 44 45 46 47 47 46 46 46 47 47 47 47 48 47 47 47 47 44 44 45 45 44 44 42 41 40 38 36
32 32 32 32 32 33 34 35 36 36 37 38 40 41 43 44 45 46 48 48 48 47 47 46 47 47 48 48 48 47 48 48 46 45 45 46 46 45 44 42 41 39 37
32 32 32 32 32 33 33 34 34 35 35 36 38 39 41 43 44 46 47 48 49 48 47 47 47 47 48 49 48 48 48 49 48 47 46 48 48 47 45 44 42 41 39
33 33 33 33 33 32 32 32 32 33 33 35 36 37 39 40 42 45 47 48 50 49 48 48 48 48 48 49 49 49 49 49 49 49 48 48 49 48 47 45 44 42 41
34 33 33 33 33 32 31 31 31 31 32 33 35 36 38 39 41 43 46 48 50 50 50 49 48 48 49 49 48 48 49 48 48 49 50 50 50 49 48 47 46 44 43
35 34 33 32 32 31 30 30 30 30 30 31 32 33 35 37 39 41 43 46 48 49 50 51 50 49 50 50 49 49 49 48 48 49 49 51 51 51 49 48 47 46 44
35 34 33 32 32 31 30 29 29 29 29 30 30 31 33 35 37 38 40 42 44 47 50 50 51 50 50 50 50 50 50 49 49 49 49 50 51 52 51 50 49 48 46
35 34 33 32 32 30 30 29 28 27 27 28 28 29 31 33 34 36 38 40 42 45 47 49 50 50 51 51 51 51 51 50 51 50 49 50 52 53 52 52 50 48 47
Wind_Direction
267 263 262 261 265 267 267 267 270 274 275 268 265 265 260 251 248 247 246 240 235 232 230 228 227 225 224 223 221 220 219 217 216 215 215 214 213 211 209 209 208 207 206
272 266 263 264 266 265 264 264 268 272 273 271 268 265 261 252 247 246 245 242 237 233 232 230 229 227 226 225 224 222 221 219 218 217 217 218 218 216 215 213 213 213 212
276 275 272 268 267 266 264 264 266 269 269 270 269 265 261 254 247 246 245 242 239 235 234 233 230 229 229 228 227 225 224 222 220 219 219 219 220 221 221 219 217 216 215
280 277 276 274 269 266 266 265 264 267 268 269 268 265 261 254 247 246 246 242 240 237 235 234 233 232 230 230 229 228 227 224 223 221 221 221 222 223 224 222 220 219 218
283 279 276 274 272 269 268 268 267 268 267 267 265 262 261 256 250 248 248 244 241 240 238 236 234 233 232 231 231 230 229 227 225 223 222 221 222 222 223 222 222 222 222
286 281 277 274 274 273 270 269 267 266 265 265 265 262 259 255 251 251 247 244 242 242 241 238 235 235 234 233 233 232 231 229 227 225 224 223 222 221 222 223 224 224 225
285 282 279 274 273 272 270 268 266 263 263 263 263 261 257 253 251 251 248 246 244 243 242 238 236 237 236 235 234 234 232 230 229 228 226 224 222 222 223 224 225 227 227
285 283 281 277 275 272 269 267 265 263 262 262 260 259 255 254 252 251 250 248 245 244 243 241 237 237 237 237 236 235 234 231 230 229 227 225 224 223 224 225 227 229 230
285 284 281 279 277 273 269 266 264 263 262 260 258 256 253 253 252 251 251 249 246 244 243 242 240 238 237 236 235 236 234 233 231 230 228 227 225 224 224 226 228 230 230
287 285 282 280 277 275 271 267 265 263 261 259 257 255 253 252 251 251 251 249 247 245 243 242 241 240 237 235 234 234 234 233 232 231 229 226 224 225 227 227 228 229 231
290 287 285 282 278 276 272 268 265 263 261 259 257 256 254 252 251 251 250 249 247 245 244 242 240 239 238 235 233 232 232 232 232 230 229 227 225 225 227 227 228 229 231
292 289 287 284 281 277 274 270 266 264 262 260 258 256 255 253 252 250 249 248 247 246 244 242 240 239 238 235 234 232 231 231 232 230 228 227 226 226 226 226 227 229 231
293 290 288 285 281 278 274 271 268 265 264 261 259 257 256 254 252 250 249 247 246 245 245 242 240 238 237 235 234 232 230 229 230 228 227 227 227 226 226 226 227 229 231
294 291 288 285 281 278 274 271 269 267 264 262 259 257 256 255 253 251 249 247 246 244 243 242 240 238 236 235 234 232 229 228 228 227 226 226 226 226 226 226 227 229 231
295 291 288 285 282 278 275 272 270 267 265 263 260 259 257 255 253 251 249 247 246 244 243 242 240 238 236 234 233 232 229 228 227 226 226 226 226 226 225 226 227 228 230
298 294 290 287 283 279 276 274 271 268 266 264 261 259 257 255 253 251 248 246 245 244 242 241 239 238 236 234 233 232 229 228 226 225 225 226 225 224 224 225 227 228 229
300 297 293 289 284 280 277 275 272 269 267 264 262 260 257 255 252 250 248 246 245 243 242 240 238 237 235 234 232 231 229 228 225 225 226 225 223 223 223 225 225 226 226
305 301 296 291 286 283 279 277 274 271 268 265 262 260 257 254 252 250 248 246 245 243 241 240 238 236 234 233 232 231 229 227 225 224 224 222 222 222 222 222 223 223 223
310 306 301 295 290 286 282 279 276 274 270 266 263 260 257 254 252 249 248 246 244 243 241 239 237 236 234 232 231 230 227 226 225 224 222 221 221 221 221 221 220 221 221
315 310 306 301 295 290 286 283 279 275 271 268 265 261 258 255 252 249 247 245 244 243 241 239 237 235 233 230 229 228 225 224 224 223 222 220 220 220 220 219 219 219 219
318 314 310 306 300 295 291 287 282 277 273 270 267 263 259 255 252 249 246 244 242 241 240 238 235 232 232 230 227 227 225 222 222 222 221 220 219 219 219 218 218 218 219
321 317 313 310 306 301 295 291 285 280 276 273 270 265 260 256 253 249 245 242 240 239 237 236 234 231 229 228 227 226 224 222 221 221 221 220 219 218 218 217 217 217 219
323 321 317 314 311 306 301 296 290 284 280 277 272 267 262 258 254 249 245 241 238 237 235 234 233 231 229 226 225 224 223 222 221 220 220 219 218 217 217 217 217 218 219
326 323 321 318 315 311 306 301 296 290 285 281 277 271 265 259 254 249 244 240 237 235 234 232 231 229 228 225 224 223 222 221 221 220 220 219 218 218 217 218 218 219 220
328 326 323 321 319 316 311 307 303 296 290 284 280 274 266 260 254 248 243 239 237 234 232 230 229 228 226 225 223 222 221 222 222 221 220 219 218 217 217 218 218 219 221
330 328 327 325 322 320 316 312 309 303 296 290 284 276 268 261 254 248 242 237 234 233 231 229 227 226 225 224 223 223 222 222 221 221 220 219 219 219 219 219 219 220 222